Flag for Kazakhstan Weather past 2 weeks in Aqtobe, Kazakhstan

36 °F


Feels Like: 31 °F
Forecast: 29 / 45 °F
Wind: 6 mph from Southwest

Location: Aktjubinsk

Current Time: Oct 10, 2015 at 1:13:39 AM

Latest Report: Oct 10, 2015 at 12:30 AM

Visibility: 10 mi

Pressure: 30.09 "Hg

Humidity: 48%

Dew point: 18 °F

Location of AqtobeLocation

Historic Weather in Aqtobe — Graph


Aqtobe temperature yesterday

Maximum temperature yesterday: 41 °F (at 1:30 PM)
Minimum temperature yesterday: 30 °F (at 8:00 AM)
Average temperature yesterday: 35 °F

Past Weeks' High & Low Weather Summary

High84 °F (Sep 25, 2:30 PM)94% (Oct 8, 2:00 PM)30.57 "Hg (Oct 8, 2:00 PM)
Low25 °F (Oct 5, 8:00 AM)8% (Sep 30, 3:00 PM)29.39 "Hg (Oct 8, 11:30 AM)
Average52 °F42%30.08 "Hg
* Reported Midnight between Sep 24 and Sep 25 — Midnight between Oct 9 and Oct 10, Aqtobe, Weather by CustomWeather, © 2015

Note: Actual official high and low records may vary slightly from our data, if they occured in-between our weather recording intervals... More about our weather records


Aqtobe weather history for previous 24 hours

Time TempWeatherWind HumidityBarometerVisibility
12:00 AM
Sat, Oct 10
32 °FClear.3 mph55%30.09 "Hg10 mi
11:30 PM
Fri, Oct 9
30 °FClear.6 mph59%30.09 "Hg10 mi
11:00 PM30 °FClear.6 mph55%30.09 "Hg10 mi
10:30 PM32 °FClear.6 mph51%30.09 "Hg10 mi
10:00 PM34 °FClear.8 mph51%30.09 "Hg10 mi
9:30 PM34 °FClear.8 mph48%30.09 "Hg10 mi
9:00 PM32 °FClear.8 mph51%30.09 "Hg10 mi
8:30 PM30 °FClear.8 mph51%30.09 "Hg10 mi
7:30 PM37 °FClear.6 mph38%30.07 "Hg10 mi
7:00 PM37 °FClear.8 mph38%30.07 "Hg10 mi
6:30 PM39 °FSunny.15 mph33%30.07 "Hg10 mi
6:00 PM39 °FSunny.15 mph33%30.07 "Hg10 mi
5:30 PM41 °FSunny.22 mph31%30.07 "Hg10 mi
5:00 PM41 °FSunny.17 mph31%30.07 "Hg10 mi
4:30 PM41 °FSunny.20 mph31%30.07 "Hg10 mi
4:00 PM41 °FSunny.22 mph31%30.04 "Hg10 mi
3:30 PM41 °FSunny.20 mph31%30.04 "Hg10 mi
3:00 PM41 °FSunny.22 mph31%30.04 "Hg10 mi
2:30 PM41 °FSunny.22 mph31%30.04 "Hg10 mi
2:00 PM41 °FSunny.22 mph31%30.04 "Hg10 mi
1:30 PM41 °FScattered clouds.20 mph33%30.04 "HgN/A
1:00 PM39 °FScattered clouds.20 mph39%30.04 "HgN/A
12:30 PM39 °FScattered clouds.20 mph36%30.04 "HgN/A
12:00 PM37 °FPassing clouds.22 mph38%30.04 "HgN/A
11:30 AM36 °FPassing clouds.22 mph44%30.04 "HgN/A
11:00 AM36 °FSunny.20 mph48%30.04 "Hg10 mi
10:30 AM36 °FSunny.20 mph52%30.01 "Hg10 mi
10:00 AM34 °FSunny.17 mph60%30.01 "Hg10 mi
9:30 AM32 °FSunny.20 mph64%30.01 "Hg10 mi
9:00 AM30 °FSunny.20 mph75%29.98 "Hg10 mi
8:30 AM30 °FScattered clouds.20 mph75%29.98 "HgN/A
8:00 AM30 °FPartly sunny.17 mph75%29.95 "HgN/A
7:30 AM32 °FPartly sunny.17 mph64%29.95 "HgN/A
7:00 AM32 °FPassing clouds.20 mph64%29.92 "HgN/A
6:30 AM32 °FPassing clouds.22 mph64%29.92 "HgN/A
6:00 AM32 °FPassing clouds.20 mph69%29.89 "HgN/A
5:30 AM32 °FPassing clouds.22 mph69%29.89 "HgN/A
5:00 AM32 °FPassing clouds.20 mph69%29.86 "HgN/A
4:30 AM32 °FPassing clouds.22 mph64%29.86 "HgN/A
4:00 AM32 °FPassing clouds.22 mph64%29.83 "HgN/A
3:30 AM32 °FPassing clouds.24 mph64%29.83 "HgN/A
3:00 AM34 °FPassing clouds.24 mph60%29.83 "HgN/A
2:30 AM34 °FPassing clouds.29 mph60%29.80 "HgN/A
2:00 AM34 °FPassing clouds.22 mph60%29.80 "HgN/A
1:30 AM34 °FPassing clouds.26 mph56%29.80 "HgN/A
1:00 AM34 °FPassing clouds.24 mph60%29.77 "HgN/A
Weather by CustomWeather, © 2015

See weather overviewHow to use our weather pages